Wind_Speed
12 12 12 12 12 11 11 12 12 13 14 14 13 14 14 14 15 15 16 16 17 17 17 18 18 18 18 18 19 19 19 19 18 17 18 19 19 19 18 17 17 17 17
14 14 15 14 13 13 13 13 13 15 16 16 16 17 16 17 17 18 19 19 19 19 20 20 21 20 20 20 20 21 21 21 20 20 20 20 20 20 19 19 19 19 19
15 15 15 15 15 15 15 14 15 16 17 18 18 19 19 19 19 20 21 21 22 22 22 22 22 21 21 21 22 22 22 22 23 22 22 22 22 22 22 22 21 21 21
17 17 16 16 16 16 16 16 16 17 18 19 19 20 20 21 21 21 22 23 24 23 23 23 23 22 21 21 22 23 23 24 24 24 24 24 23 23 23 23 23 23 23
18 17 16 16 17 17 17 17 18 18 19 19 20 21 21 21 22 22 23 23 23 24 24 23 23 22 23 23 24 25 25 25 25 25 25 25 24 24 25 24 24 24 24
18 17 17 17 18 18 18 19 19 19 19 20 21 22 22 22 23 23 23 23 23 23 24 24 24 25 25 26 26 26 25 25 24 24 24 24 24 24 25 25 24 25 25
20 19 19 18 19 19 19 20 21 21 22 22 22 23 24 24 24 25 25 24 24 25 25 26 26 26 27 26 26 26 26 26 26 26 26 26 26 25 24 24 24 24 25
22 22 21 20 20 20 21 22 22 23 23 24 25 25 25 26 26 26 26 26 26 26 26 26 26 26 27 27 27 27 27 27 27 28 28 28 28 27 26 26 26 26 26
24 23 22 22 22 22 23 23 24 24 24 24 25 25 26 27 27 28 27 27 27 27 27 27 27 28 28 28 28 28 28 28 29 29 29 30 30 29 28 28 27 27 28
26 25 24 24 25 25 25 25 25 25 25 25 25 26 27 28 28 28 28 28 28 28 28 29 29 29 29 30 30 30 30 30 30 31 31 31 31 31 31 30 30 30 31
27 27 26 27 27 27 27 26 26 26 26 26 26 27 27 27 27 27 28 28 28 28 29 30 31 31 31 32 32 32 32 32 32 32 32 32 33 32 32 32 32 32 32
29 29 29 29 29 29 28 28 28 28 28 28 27 27 27 27 27 28 29 28 28 29 30 32 33 33 33 33 34 34 33 33 33 33 33 33 34 34 34 33 34 34 34
31 30 30 30 30 30 30 30 29 30 30 29 28 29 29 29 29 29 29 29 29 30 31 32 32 33 33 34 34 34 34 34 34 34 34 34 34 35 35 35 35 36 36
30 30 31 30 31 30 30 31 31 31 30 30 30 30 30 30 30 30 30 30 31 32 32 33 34 34 34 34 35 35 35 36 36 36 36 36 36 36 36 36 36 36 36
30 31 31 30 30 30 31 31 31 31 31 32 32 32 31 31 32 32 32 32 32 33 33 34 35 36 36 35 36 36 37 37 37 37 38 37 37 37 37 37 37 37 38
29 30 32 32 31 31 31 32 31 32 33 33 33 33 33 33 34 34 34 34 34 35 35 36 36 36 36 37 37 38 38 39 39 40 39 39 38 38 38 38 37 37 38
31 32 33 34 33 32 32 32 33 33 34 33 34 34 35 35 36 36 36 37 37 37 37 37 37 37 38 38 38 39 39 40 40 40 40 39 39 39 38 38 38 39 39
33 33 34 35 35 34 34 33 34 34 34 35 35 35 36 36 37 38 38 39 39 39 39 39 39 39 39 39 40 40 41 41 41 41 41 40 40 39 39 39 39 39 39
35 35 35 35 36 36 36 36 35 35 36 36 36 36 37 38 38 38 39 40 40 40 40 40 41 41 41 41 41 41 42 42 42 42 41 41 40 40 40 40 40 40 40
35 35 36 36 36 36 36 36 36 36 36 37 37 38 38 39 39 40 40 40 41 41 41 41 42 42 42 42 42 42 42 42 42 42 42 41 41 40 40 40 41 40 40
34 35 35 35 34 35 35 36 36 36 36 37 38 39 39 39 40 40 40 41 41 41 41 41 41 42 42 42 42 42 41 41 40 40 40 40 40 40 40 40 39 39 39
33 33 34 34 33 34 34 35 35 36 37 37 38 39 39 39 40 40 41 41 42 42 41 41 41 41 40 40 41 40 40 40 40 40 39 39 40 39 39 40 40 39 39
31 32 32 33 33 33 34 34 36 37 37 37 38 38 39 39 39 39 40 40 41 40 40 39 39 39 39 39 40 39 39 39 39 39 39 39 39 38 38 38 39 39 39
30 30 31 31 31 33 34 35 36 36 36 37 37 37 38 38 39 39 40 40 40 40 39 38 39 39 39 39 39 39 38 38 38 38 38 38 38 38 37 38 38 37 37
28 29 30 31 32 33 34 34 34 35 35 35 36 37 37 38 38 39 39 39 38 38 38 39 39 39 38 38 38 37 37 37 37 37 36 37 38 38 37 37 37 36 36
29 29 29 30 31 32 33 33 33 34 34 35 36 37 37 38 37 37 37 37 37 37 37 37 37 37 37 36 36 36 36 36 36 36 36 37 37 37 36 35 35 36 35
Wind_Direction
305 306 306 300 296 294 292 280 273 272 272 274 279 284 287 288 289 291 292 293 295 295 296 298 299 297 298 298 297 294 293 292 291 291 290 287 288 290 291 286 285 284 282
302 301 298 295 292 290 288 282 277 273 270 272 278 281 284 286 287 289 289 291 294 294 294 295 297 295 296 296 296 296 294 292 291 290 289 289 286 288 288 285 282 282 282
298 300 298 295 291 289 287 285 284 281 276 276 278 280 282 284 286 287 288 288 292 293 294 294 296 294 296 297 296 297 296 294 292 290 289 288 286 284 284 284 283 280 279
293 297 299 297 294 289 288 287 287 285 283 280 280 281 282 285 286 287 287 288 290 292 293 294 294 294 294 296 296 296 296 295 293 292 291 289 287 284 284 284 283 281 278
293 296 296 296 293 289 286 285 285 284 284 283 283 282 282 285 287 288 288 288 290 291 290 290 291 292 293 296 295 293 293 293 293 292 291 290 287 283 283 283 282 281 279
297 298 297 295 291 289 287 285 285 285 284 285 285 283 285 288 289 288 291 290 290 290 290 290 290 292 294 295 294 294 294 293 292 291 291 290 289 286 284 282 281 281 280
295 296 296 296 294 291 288 286 285 286 287 287 287 287 286 286 287 288 288 290 291 290 289 290 289 290 292 294 295 295 296 294 293 293 292 291 290 288 285 284 282 281 281
292 294 294 293 293 293 293 292 291 290 287 288 289 289 288 287 286 286 286 288 290 291 291 291 292 291 293 294 295 295 294 294 293 293 293 291 289 288 285 283 281 280 281
289 290 290 291 292 294 295 295 295 293 292 292 290 289 287 287 287 285 286 287 288 290 289 289 291 292 292 293 294 294 293 293 293 291 291 291 289 287 284 282 279 279 280
285 285 287 290 293 295 296 296 295 293 292 290 290 289 288 287 286 284 285 286 287 288 288 289 289 289 290 291 292 293 293 292 292 290 289 289 288 286 284 282 280 279 280
285 286 288 288 291 292 294 295 295 294 293 291 290 288 288 286 285 284 285 287 287 288 288 289 289 289 290 290 291 292 291 291 290 289 288 288 288 287 286 283 281 281 280
286 286 287 286 287 288 289 291 293 293 292 289 288 288 288 287 287 286 287 287 288 289 289 289 290 289 289 289 290 290 290 290 289 288 288 288 288 287 286 284 282 282 281
286 285 285 284 284 285 288 289 289 289 288 288 289 291 291 290 290 290 289 288 288 289 290 290 290 290 290 290 290 290 290 290 289 287 287 287 287 287 286 285 283 283 282
286 285 284 285 285 285 286 287 288 287 286 288 290 291 291 290 289 288 289 290 291 291 291 291 291 290 290 291 292 291 290 289 288 287 286 286 287 287 286 285 284 283 283
287 288 289 287 285 284 285 288 287 286 287 288 289 289 288 288 288 289 289 290 291 292 293 294 293 292 291 291 292 291 291 289 289 287 287 286 286 286 286 284 284 284 283
288 289 289 288 285 285 286 288 289 287 286 286 287 288 288 287 287 288 289 290 291 291 292 294 293 292 291 290 290 291 291 290 290 289 288 286 286 285 284 284 283 283 282
289 290 290 290 288 285 285 286 287 287 287 287 288 289 288 288 288 288 289 290 290 290 291 292 292 291 290 290 290 291 291 291 292 291 289 286 285 285 284 283 283 282 282
289 289 289 290 289 287 285 285 285 285 286 286 287 289 288 287 287 288 289 289 290 290 290 291 291 291 290 291 291 291 292 292 292 291 290 288 286 285 284 284 283 282 281
287 288 288 289 289 288 285 283 284 285 285 286 287 288 288 288 288 288 288 289 290 290 290 291 291 290 290 290 291 291 292 293 292 291 291 290 287 285 284 283 282 281 280
286 286 286 287 287 287 284 282 283 285 286 286 286 287 288 288 288 289 288 288 289 289 290 290 290 290 290 290 290 291 291 292 292 291 290 289 287 285 284 283 282 281 281
286 286 286 286 285 286 286 284 284 286 287 287 287 288 289 288 288 289 289 289 289 290 290 290 290 289 289 290 290 290 290 291 292 292 291 289 287 286 285 284 283 282 281
288 288 287 287 287 287 286 286 287 288 289 289 290 290 290 290 290 290 290 290 291 290 289 289 289 289 290 290 290 291 291 291 292 293 292 291 290 288 285 284 283 283 283
291 290 290 290 289 289 287 289 290 291 290 290 291 291 290 290 290 290 291 292 292 292 292 292 291 290 290 290 291 291 292 292 292 292 291 290 290 288 286 284 282 281 281
292 293 292 291 290 289 290 291 291 291 291 291 292 292 292 292 291 291 291 292 292 292 292 292 291 292 292 292 293 292 292 292 291 289 287 287 287 286 286 284 283 282 282
294 294 293 293 293 293 292 292 292 292 292 293 293 294 294 294 294 294 293 294 294 293 292 292 292 292 293 294 294 294 293 292 292 291 289 288 288 288 287 287 286 285 283
294 296 296 296 297 297 296 296 296 295 295 296 296 296 296 297 297 297 297 297 296 294 294 294 294 294 295 295 295 295 294 293 292 291 291 290 288 287 287 288 287 285 284
Height
5886 5884 5883 5881 5880 5879 5878 5878 5877 5876 5876 5876 5875 5874 5874 5873 5872 5871 5870 5869 5867 5866 5865 5863 5861 5860 5858 5856 5855 5853 5852 5850 5849 5848 5847 5846 5845 5843 5842 5841 5841 5840 5839
5883 5881 5880 5878 5877 5876 5875 5874 5873 5872 5872 5871 5871 5870 5869 5869 5867 5866 5865 5864 5862 5861 5860 5858 5856 5855 5853 5851 5849 5848 5846 5845 5844 5843 5842 5840 5839 5838 5837 5836 5836 5835 5833
5879 5878 5876 5874 5873 5872 5871 5870 5869 5869 5868 5867 5866 5865 5865 5864 5863 5861 5860 5859 5857 5856 5854 5852 5851 5849 5848 5846 5844 5842 5841 5840 5839 5837 5836 5835 5834 5832 5831 5830 5829 5829 5828
5875 5873 5872 5870 5869 5868 5867 5866 5865 5864 5863 5862 5861 5860 5859 5858 5857 5856 5855 5853 5852 5850 5848 5846 5845 5843 5842 5840 5838 5837 5835 5834 5832 5831 5829 5828 5827 5826 5825 5824 5823 5822 5821
5870 5869 5867 5866 5864 5863 5862 5861 5860 5859 5858 5857 5856 5854 5853 5852 5851 5850 5848 5847 5846 5844 5842 5840 5839 5837 5836 5834 5832 5831 5829 5827 5826 5824 5823 5821 5820 5818 5817 5816 5815 5815 5814
5865 5864 5862 5860 5859 5858 5857 5855 5855 5853 5852 5851 5850 5849 5847 5847 5845 5844 5842 5841 5839 5838 5836 5835 5833 5831 5830 5828 5826 5824 5822 5821 5819 5817 5816 5814 5813 5811 5810 5809 5808 5807 5807
5861 5859 5857 5856 5854 5853 5852 5850 5849 5848 5847 5845 5844 5843 5842 5841 5839 5838 5836 5835 5833 5832 5830 5828 5826 5825 5823 5821 5819 5817 5815 5813 5812 5811 5809 5807 5805 5804 5802 5801 5801 5800 5799
5855 5854 5852 5851 5849 5848 5846 5845 5843 5842 5841 5839 5838 5836 5835 5834 5833 5831 5830 5828 5826 5825 5823 5821 5819 5818 5816 5814 5812 5810 5808 5806 5804 5802 5801 5799 5797 5796 5794 5794 5793 5792 5791
5849 5848 5846 5845 5844 5842 5840 5839 5837 5836 5834 5833 5831 5830 5829 5828 5826 5824 5822 5821 5819 5818 5816 5814 5813 5811 5809 5807 5805 5803 5800 5798 5796 5794 5792 5790 5789 5787 5786 5785 5784 5783 5783
5842 5841 5840 5838 5837 5835 5834 5832 5830 5829 5827 5826 5824 5823 5821 5820 5818 5817 5815 5814 5812 5810 5808 5807 5805 5803 5801 5799 5797 5795 5793 5790 5788 5786 5784 5782 5780 5778 5777 5776 5775 5774 5773
5835 5834 5832 5831 5830 5828 5826 5825 5823 5822 5820 5819 5817 5815 5813 5812 5810 5809 5808 5806 5804 5802 5800 5798 5796 5794 5792 5790 5788 5786 5784 5781 5779 5777 5775 5773 5770 5769 5767 5766 5765 5764 5763
5828 5826 5825 5823 5822 5820 5819 5817 5815 5814 5812 5811 5809 5808 5806 5804 5802 5800 5799 5798 5796 5794 5792 5790 5787 5785 5783 5781 5779 5776 5774 5772 5769 5767 5765 5763 5761 5759 5757 5756 5755 5753 5753
5820 5818 5816 5815 5814 5812 5811 5809 5807 5806 5804 5803 5801 5799 5797 5795 5794 5792 5790 5789 5787 5785 5783 5780 5778 5776 5773 5771 5769 5766 5764 5761 5759 5757 5755 5753 5750 5748 5747 5745 5744 5742 5741
5810 5809 5807 5806 5805 5804 5802 5801 5799 5797 5795 5794 5793 5791 5789 5787 5785 5784 5782 5780 5778 5776 5774 5771 5769 5766 5764 5761 5759 5756 5753 5751 5748 5746 5744 5742 5740 5737 5735 5734 5733 5731 5730
5802 5800 5799 5797 5796 5795 5793 5792 5790 5789 5787 5786 5784 5782 5781 5779 5777 5775 5773 5771 5769 5767 5764 5761 5759 5756 5754 5751 5748 5745 5742 5739 5737 5735 5733 5731 5729 5726 5724 5723 5721 5720 5719
5793 5792 5790 5789 5787 5786 5784 5783 5781 5780 5778 5776 5775 5773 5771 5770 5768 5766 5764 5761 5759 5757 5754 5751 5749 5746 5743 5740 5737 5734 5731 5728 5726 5723 5721 5719 5717 5715 5713 5711 5710 5708 5707
5785 5783 5781 5780 5778 5777 5775 5774 5773 5771 5769 5767 5765 5763 5762 5760 5758 5756 5753 5751 5749 5746 5744 5741 5738 5735 5732 5729 5726 5723 5720 5717 5714 5712 5709 5707 5705 5703 5701 5699 5697 5696 5694
5776 5774 5772 5770 5769 5767 5766 5764 5763 5761 5760 5758 5756 5753 5751 5749 5747 5745 5742 5740 5737 5735 5732 5729 5726 5723 5720 5717 5714 5711 5708 5705 5702 5700 5697 5695 5692 5690 5688 5686 5685 5683 5682
5766 5765 5763 5761 5759 5757 5755 5754 5752 5751 5749 5748 5746 5744 5741 5739 5736 5734 5731 5728 5726 5723 5720 5718 5714 5711 5708 5705 5702 5699 5696 5693 5690 5687 5685 5682 5679 5677 5675 5673 5672 5670 5668
5756 5754 5753 5751 5749 5747 5745 5743 5742 5740 5739 5737 5735 5733 5730 5727 5725 5722 5719 5716 5714 5711 5708 5705 5702 5699 5696 5692 5690 5687 5684 5681 5678 5675 5672 5669 5667 5665 5662 5660 5659 5657 5655
5746 5744 5742 5741 5738 5736 5734 5733 5731 5729 5727 5726 5724 5721 5718 5716 5713 5710 5707 5704 5701 5698 5695 5692 5689 5686 5683 5680 5677 5674 5671 5668 5665 5662 5659 5656 5654 5652 5650 5647 5645 5644 5642
5737 5735 5733 5731 5729 5727 5725 5723 5721 5719 5716 5714 5712 5709 5706 5703 5700 5697 5694 5692 5688 5685 5682 5679 5676 5673 5670 5667 5664 5661 5658 5655 5652 5649 5647 5644 5642 5639 5637 5635 5633 5631 5629
5728 5725 5723 5721 5719 5717 5715 5713 5710 5708 5706 5703 5701 5697 5694 5691 5688 5685 5682 5679 5676 5673 5670 5666 5664 5661 5658 5655 5651 5648 5645 5642 5640 5637 5634 5632 5629 5626 5624 5622 5620 5618 5616
5719 5716 5714 5712 5710 5707 5705 5703 5700 5697 5695 5692 5689 5686 5683 5680 5676 5673 5670 5667 5664 5661 5658 5655 5652 5649 5646 5642 5639 5635 5632 5629 5627 5624 5622 5619 5617 5614 5612 5610 5607 5605 5603
5710 5708 5705 5703 5701 5698 5695 5692 5689 5687 5684 5681 5678 5675 5672 5668 5665 5662 5659 5655 5652 5649 5646 5643 5640 5637 5634 5630 5627 5623 5620 5617 5615 5612 5609 5606 5604 5602 5599 5597 5595 5593 5591
5701 5699 5696 5694 5691 5688 5685 5682 5679 5676 5673 5670 5667 5664 5661 5657 5654 5650 5647 5644 5641 5638 5635 5632 5628 5625 5622 5619 5615 5612 5609 5605 5603 5600 5597 5594 5591 5589 5587 5585 5583 5581 5579